This is the latest recevied weather packets stored in our database for station/object DK4DO-10. If no packets are shown the sender has not sent any weather packets the latest 10 day(s).
| Time | Temp. | Humidity | Pressure | Rain* | Wind** | Luminosity | Snow |
|---|---|---|---|---|---|---|---|
| 1777554768 | 18.89° C | 13% | 1021.8 hPa | - | - | - | - |
| 1777554167 | 18.89° C | 14% | 1021.9 hPa | - | - | - | - |
| 1777553567 | 18.33° C | 14% | 1022 hPa | - | - | - | - |
| 1777552967 | 17.78° C | 15% | 1022.1 hPa | - | - | - | - |
| 1777552367 | 17.78° C | 14% | 1022.2 hPa | - | - | - | - |
| 1777551767 | 17.78° C | 15% | 1022.3 hPa | - | - | - | - |
| 1777551175 | 17.22° C | 15% | 1022.4 hPa | - | - | - | - |
| 1777550574 | 17.22° C | 14% | 1022.4 hPa | - | - | - | - |
| 1777549974 | 17.22° C | 15% | 1022.5 hPa | - | - | - | - |
| 1777549374 | 17.22° C | 15% | 1022.4 hPa | - | - | - | - |
| 1777548774 | 17.22° C | 15% | 1022.6 hPa | - | - | - | - |
| 1777548173 | 16.67° C | 14% | 1022.9 hPa | - | - | - | - |
| 1777547573 | 16.67° C | 15% | 1022.9 hPa | - | - | - | - |
| 1777546973 | 16.67° C | 15% | 1023 hPa | - | - | - | - |
| 1777546373 | 15.56° C | 15% | 1023 hPa | - | - | - | - |
| 1777545772 | 16.11° C | 15% | 1023.3 hPa | - | - | - | - |
| 1777545172 | 15.56° C | 16% | 1023.3 hPa | - | - | - | - |
| 1777544572 | 15.56° C | 16% | 1023.2 hPa | - | - | - | - |
| 1777543972 | 15.56° C | 15% | 1023.4 hPa | - | - | - | - |
| 1777543372 | 15° C | 16% | 1023.4 hPa | - | - | - | - |
| 1777542771 | 14.44° C | 16% | 1023.5 hPa | - | - | - | - |
| 1777542171 | 14.44° C | 16% | 1023.6 hPa | - | - | - | - |
| 1777541571 | 13.33° C | 16% | 1023.7 hPa | - | - | - | - |
| 1777540971 | 13.33° C | 17% | 1023.8 hPa | - | - | - | - |
| 1777540371 | 12.78° C | 17% | 1023.9 hPa | - | - | - | - |
* Rain since midnight (hover to see other rain measurements)
** Current wind speed in m/s (hover to see current wind gust speed)